{"data":{"norad_id":53653,"intl_designator":"2022-105F","name":"STARLINK-4390","alt_names":[],"object_type":"PAYLOAD","status":"ACTIVE","operator":null,"country":"US","launch_date":"2022-08-31","launch_site_code":"AFWTR","launch_vehicle":null,"mission":null,"orbit_class":"UNKNOWN","rcs_meters":null,"size_class":null,"mass_kg":null,"dimensions":null,"purposes":["comms"],"wikipedia_slug":null,"has_3d_model":false,"image_url":null,"decayed_at":null,"tle_current":{"epoch":"2026-05-25T04:00:03.998880Z","epoch_age_seconds":63779,"freshness":"FRESH","line1":"1 53653U 22105F   26145.16671295  .00093994  00000+0  24965-2 0  9998","line2":"2 53653  97.6037  27.0879 0001501  74.3012  44.9668 15.37907629  5824","mean_motion":15.37907629,"eccentricity":0.0001501,"inclination_deg":97.6037,"raan_deg":27.0879,"arg_perigee_deg":74.3012,"mean_anomaly_deg":44.9668,"bstar":0.0024965,"rev_number":582,"period_min":93.633711989343,"perigee_km":451.27239946519,"apogee_km":453.32289594643,"semimajor_km":6830.4346477058,"source":"CELESTRAK","updated_at":"2026-05-25T13:38:17.485215Z"}}}